Location: Arena
(42.5007°N, 9.4650°E)
Time: 16:30:29
(UTC+00:00)

ATLAS CENTAUR R/B - Pass Details

Date: 09 April 2020
Orbit: 471 x 675 km, 64.7° (Epoch: 01 June)

Event Time Altitude Azimuth Distance (km) Brightness Sun altitude
Rises 20:17:47 0° 337° (NNW) 2,664 5.8 -24.2°
Reaches altitude 10° 20:20:34 10° 357° (N) 1,734 4.4 -24.6°
Enters shadow 20:22:26 17° 25° (NNE) 1,327 3.4 -24.8°
